Location: Caltech
(34.1382°N, 118.1253°W)
Time: 21:08:49
(UTC-08:00)

Cosmos 1980 Rocket - Visible Passes

Search period start: 19 February 2018 00:00
Search period end: 01 March 2018 00:00
Orbit: 829 x 850 km, 71.0° (Epoch: 19 February)

Date Brightness Start Highest point End Pass type
(mag) Time Alt. Az. Time Alt. Az. Time Alt. Az.
19 Feb 3.6 04:20:34 10° S 04:25:42 36° ESE 04:30:51 10° NE visible
19 Feb 3.1 06:05:00 10° WSW 06:09:43 27° WNW 06:14:27 10° N visible
20 Feb 3.7 04:05:01 10° SSE 04:10:03 34° ESE 04:15:06 10° NE visible
20 Feb 3.1 05:49:10 10° WSW 05:54:00 28° WNW 05:58:51 10° N visible
21 Feb 3.8 03:51:22 19° SSE 03:54:24 31° ESE 03:59:20 10° NE visible
21 Feb 3.0 05:33:21 10° WSW 05:38:18 30° WNW 05:43:14 10° N visible
22 Feb 3.8 03:37:44 28° ESE 03:38:45 29° ESE 03:43:34 10° NE visible
22 Feb 2.9 05:19:36 20° WSW 05:22:35 32° WNW 05:27:39 10° N visible
23 Feb 4.0 03:23:39 27° E 03:23:39 27° E 03:27:47 10° NE visible
23 Feb 2.8 05:05:29 30° W 05:06:53 34° WNW 05:12:01 10° N visible
24 Feb 4.4 03:09:16 21° ENE 03:09:16 21° ENE 03:12:00 10° NE visible
24 Feb 2.7 04:51:06 37° WNW 04:51:11 37° WNW 04:56:25 10° N visible
25 Feb 4.7 02:54:41 16° ENE 02:54:41 16° ENE 02:56:11 10° NE visible
25 Feb 2.9 04:36:30 36° NW 04:36:30 36° NW 04:40:47 10° N visible
26 Feb 5.0 02:39:58 12° NE 02:39:58 12° NE 02:40:23 10° NE visible
26 Feb 3.2 04:21:45 32° NNW 04:21:45 32° NNW 04:25:09 10° N visible
27 Feb 3.6 04:06:54 26° N 04:06:54 26° N 04:09:31 10° N visible
28 Feb 4.0 03:51:56 21° N 03:51:56 21° N 03:53:53 10° N visible
